Regional Weather Roundup
Issued by NWS

Home | Current Version | Previous Version | Graphics & Text | Print | Product List | Glossary On
Versions: 1 2 3 4 5 6 7 8 9 10 11 12 13 14 15 16 17 18 19 20 21 22 23 24 25 26 27 28 29 30 31 32 33 34 35 36 37 38 39 40 41 42 43 44 45 46 47 48 49 50
000
ASUS43 KMPX 302101
RWRMN
WEATHER ROUNDUP FOR MINNESOTA
NATIONAL WEATHER SERVICE TWIN CITIES/CHANHASSEN MN
300 PM CST FRI JAN 30 2015


NOTE: "FAIR" INDICATES FEW OR NO CLOUDS BELOW 12,000 FEET WITH NO
SIGNIFICANT WEATHER AND/OR OBSTRUCTIONS TO VISIBILITY. N/A MEANS
CURRENT SKY AND/OR WEATHER CONDITIONS ARE NOT AVAILABLE.

MNZ060>063-068>070-302200-
   Twin Cities Metro

CITY           SKY/WX    TMP DP  RH WIND       PRES   REMARKS
TWIN CITIES    MOSUNNY   26  12  55 S12       30.34F WCI  16
ST PAUL        SUNNY     27  12  53 S8        30.36F WCI  19
CRYSTAL        SUNNY     27  13  55 S13       30.33F WCI  16
BLAINE         MOSUNNY   27  12  54 S7        30.33F WCI  19
LAKEVILLE      SUNNY     25  16  68 S12       30.34F WCI  14
EDEN PRAIRIE   SUNNY     27  14  58 SW15      30.32F WCI  15
SOUTH ST PAUL  SUNNY     27  13  57 S9        30.35F WCI  17
LAKE ELMO      FAIR      27  14  59 S12       30.36F WCI  16
$$
MNZ001>005-007-008-013>017-022>024-027-028-302200-
   Northwest Minnesota

CITY           SKY/WX    TMP DP  RH WIND       PRES   REMARKS
BEMIDJI        CLOUDY    18  11  75 SE15      30.14F WCI   4
HALLOCK        SUNNY     25  18  74 S15       30.12F WCI  12
ROSEAU         CLOUDY    19  12  73 S15       30.13F WCI   5
WARROAD        CLOUDY    18  12  79 S5        30.14F WCI  11
THIEF RVR FALL CLOUDY    21  19  93 SW10      30.15S WCI  10
CROOKSTON      MOSUNNY   28  19  69 S14       30.16F WCI  17
FOSSTON        CLOUDY    23  18  80 S10       30.15R WCI  12
DETROIT LAKES  SUNNY     27  19  74 S15       30.15F WCI  15
MOORHEAD       SUNNY     28  25  86 S17       30.16F WCI  16
PARK RAPIDS    CLOUDY    23  14  68 S18       30.14F WCI   9
MAHNOMEN       CLOUDY    24  17  75 S13       30.14S WCI  12
$$
MNZ006-009>011-018-025>026-302200-
   North Central Minnesota

CITY           SKY/WX    TMP DP  RH WIND       PRES   REMARKS
BAUDETTE       CLOUDY    14   7  73 VRB3      30.14F
FLAG ISLAND    CLOUDY    10   7  85 S14       30.15F WCI  -5
INTL FALLS     LGT SNOW  10   5  80 SE9       30.19F WCI  -3
WASKISH        PTSUNNY   18   9  68 SE8       30.16F WCI   7
BIG FORK       MOSUNNY   16   5  62 SE6       30.20F WCI   7
LONGVILLE      CLOUDY    18   9  68 SE8       30.21F WCI   7
GRAND RAPIDS   MOSUNNY   16   7  67 S10       30.22F WCI   3
CRANE LAKE     LGT SNOW  10   5  79 SE5       30.26F WCI   2
ORR            LGT SNOW  12   1  62 SE9       30.20F WCI   0
COOK           CLOUDY    12   3  67 SE9       30.24F WCI   0
WALKER         CLOUDY    18  10  70 S9        30.18F WCI   7
$$
MNZ012-019>021-037-302200-
   Northeast Minnesota

CITY           SKY/WX    TMP DP  RH WIND       PRES   REMARKS
DULUTH         CLOUDY    14   3  61 S8        30.27F WCI   3
ELY            LGT SNOW  10   5  79 S3        30.25F
HIBBING        CLOUDY    14   2  58 S7        30.24F WCI   4
EVELETH        MOSUNNY   14   3  62 S8        30.26F WCI   3
DULUTH HARBOR  CLOUDY    18   7  62 CALM      30.35F
TWO HARBORS    CLOUDY    16   5  62 SW6       30.29F WCI   7
SILVER BAY     CLOUDY    16   7  67 S3        30.29F HAZE
GRAND MARAIS     N/A     17   5  59 SW12      30.34F WCI   4
G MARAIS ARPRT PTSUNNY    9  -2  61 S5        30.23F WCI   0
$$
MNZ029>031-032-039>041-046>048-054>057-064-302200-
   West Central Minnesota

CITY           SKY/WX    TMP DP  RH WIND       PRES   REMARKS
FERGUS FALLS   PTSUNNY   27  18  69 S17       30.21F WCI  14
WHEATON        SUNNY     30  25  80 S18       30.18F WCI  18
MORRIS         SUNNY     30  23  74 SE20G28   30.18F WCI  18
ALEXANDRIA     MOSUNNY   22  16  78 S16       30.20F WCI   8
ELBOW LAKE     FAIR      25  20  81 S22       30.18F WCI  10
WADENA         CLOUDY    21  16  79 S13       30.17F WCI   9
GLENWOOD       SUNNY     25  18  74 S16       30.22F WCI  12
APPLETON       SUNNY     36  25  64 S14G22    30.20F
BENSON         PTSUNNY   28  21  74 S16G22    30.22F WCI  17
ORTONVILLE     SUNNY     36  27  69 S12       30.18F
MADISON        SUNNY     39  30  70 S18       30.19F
WILLMAR        FAIR      27  19  74 S13G20    30.27F WCI  16
$$
MNZ033>034-036-042>043-049>051-058-059-302200-
   Central Minnesota

CITY           SKY/WX    TMP DP  RH WIND       PRES   REMARKS
ST CLOUD       SUNNY     25  14  63 S14       30.28F WCI  13
SAUK CENTRE    FAIR      23  17  77 S15       30.23F WCI  10
PAYNESVILLE    SUNNY     22  16  77 SE15      30.26F WCI   9
AITKIN         PTSUNNY   21  10  63 S10       30.24F WCI  10
PINE RIVER     CLOUDY    21  12  68 SE12      30.23F WCI   9
BRAINERD       CLOUDY    23  11  60 S14       30.23F WCI  11
STAPLES        CLOUDY    21  12  68 S9        30.20F WCI  11
LONG PRAIRIE   CLOUDY    23  16  74 SE14      30.22F WCI  11
LITTLE FALLS   CLOUDY    27  12  54 SE12G17   30.25F WCI  16
LITCHFIELD     SUNNY     27  19  74 S6        30.29F WCI  20
BUFFALO        SUNNY     26  15  64 S12       30.33F WCI  15
MAPLE LAKE     SUNNY     26  18  70 S8G17     30.31F WCI  18
$$
MNZ037-044-045-052-053-302200-
   East Central Minnesota

CITY           SKY/WX    TMP DP  RH WIND       PRES   REMARKS
PRINCETON      SUNNY     27  12  54 S10       30.30F WCI  17
MORA           SUNNY     23  10  58 S10       30.33F WCI  12
CAMBRIDGE      SUNNY     27  12  54 S9        30.31F WCI  17
RUSH CITY      SUNNY     22  10  59 SE7       30.33F WCI  14
MOOSE LAKE     CLOUDY    18   5  57 S6        30.29F WCI   9
HINCKLEY       FAIR      21   9  58 S10       30.32F WCI  10
CLOQUET        CLOUDY    16   3  57 S7        30.28F WCI   6
MCGREGOR       CLOUDY    19   9  63 S8        30.27F WCI   9
$$
MNZ071>073-080-081-089-090-097-098-302200-
   Southwest Minnesota

CITY           SKY/WX    TMP DP  RH WIND       PRES   REMARKS
MONTEVIDEO     SUNNY     32  25  74 SW14G21   30.24F WCI  22
GRANITE FALLS  SUNNY     32  25  76 SE16      30.26F WCI  21
CANBY          SUNNY     37  27  68 S16       30.20F
MARSHALL       SUNNY     34  25  69 S14G22    30.25F WCI  24
REDWOOD FALLS  MOSUNNY   31  21  66 S15       30.29F WCI  20
OLIVIA         SUNNY     28  23  80 S14G22    30.26F WCI  17
PIPESTONE      SUNNY     32  27  80 S17         N/A  WCI  21
WINDOM         MOSUNNY   32  23  69 S14       30.28F WCI  22
WORTHINGTON    SUNNY     30  25  80 S17G23    30.27F WCI  18
JACKSON        SUNNY     32  23  69 S14       30.30F WCI  22
TRACY          SUNNY     34  27  74 S15G22    30.25F WCI  24
SLAYTON        SUNNY     32  25  75 S20       30.25F WCI  20
$$
MNZ065>067-074>077-082>085-091>093-302200-
   South Central Minnesota

CITY           SKY/WX    TMP DP  RH WIND       PRES   REMARKS
MANKATO        SUNNY     28  18  64 S13       30.33F WCI  18
NEW ULM        SUNNY     28  19  69 S14       30.32F WCI  17
ST JAMES       SUNNY     30  21  69 S13       30.33F WCI  20
FAIRMONT       SUNNY     30  19  64 S16       30.32F WCI  19
GLENCOE        SUNNY     28  21  72 S9G16     30.31F WCI  20
FARIBAULT      SUNNY     27  18  69 S8        30.35F WCI  18
OWATONNA       SUNNY     27  18  69 S10       30.34F WCI  17
WASECA         SUNNY     28  21  74 S13G20    30.36F WCI  18
ALBERT LEA     SUNNY     28  18  64 S10       30.35F WCI  19
$$
MNZ078>079-086>088-094>096-302200-
   Southeast Minnesota

CITY           SKY/WX    TMP DP  RH WIND       PRES   REMARKS
ROCHESTER      SUNNY     22  13  68 S14       30.36F WCI   9
RED WING       SUNNY     27  12  54 S8        30.37F WCI  18
STANTON        SUNNY     28  17  61 S9        30.34F WCI  19
DODGE CENTER   SUNNY     25  18  74 S14       30.35F WCI  13
WINONA         MOSUNNY   28  10  47 SW5       30.42F WCI  23
AUSTIN         SUNNY     27  16  63 S9        30.36F WCI  17
PRESTON        SUNNY     22  10  59 S12       30.38F WCI  11
$$
ABBREVIATIONS USED IN REMARKS
   TC - TEMPERATURES IN CELSIUS
  WCI - WIND CHILL INDEX
   HX - HEAT INDEX
  VSB - VISIBILITY
$$



USA.gov is the U.S. government's official web portal to all federal, state and local government web resources and services.